Fort Bridger AP, Fort Bridger, WY

9:29 AM MST on January 22, 2018 (GMT -0700)
Fort Bridger

Weather History for KFBR - April, 2014

Change the Weather History Date:

Wednesday, April 9, 2014

  Actual Average (KEVW) Record (KEVW)
Temperature  
Mean Temperature 54 °F -  
Max Temperature 66 °F 44 °F 68 °F (2012)
Min Temperature 43 °F 25 °F 12 °F (2001)
Degree Days  
Heating Degree Days 10    
Growing Degree Days 4 (Base 50)    
Moisture  
Dew Point 22 °F    
Average Humidity 31    
Maximum Humidity 45    
Minimum Humidity 17    
Precipitation  
Precipitation 0.00 in - - ()
Sea Level Pressure  
Sea Level Pressure 30.14 in    
Wind  
Wind Speed 16 mph (West)    
Max Wind Speed 31 mph    
Max Gust Speed 40 mph    
Visibility 10 miles    
Events      
Averages and records for this station are not official NWS values.
T = Trace of Precipitation, MM = Missing Value Source: NWS Daily Summary

Daily Weather History Graph

Daily Weather History Graph

Search for Another Location

Airport or City:

Trip Planner

Search our weather history database for the weather conditions in past years. The results will help you decide how hot, cold, wet, or windy it might be!

Date:

Astronomy

Apr. 09, 2014 Rise Set
Actual Time 6:51 AM MDT 7:55 PM MDT
Civil Twilight 6:23 AM MDT 8:23 PM MDT
Nautical Twilight 5:49 AM MDT 8:57 PM MDT
Astronomical Twilight 5:14 AM MDT 9:33 PM MDT
Moon 2:43 PM MDT (4/9) 3:46 AM MDT (4/9)
Length of Visible Light 14h 00m
Length of Day
13h 04m
Waxing Gibbous, 72% of the Moon is Illuminated
Apr 9
Waxing Gibbous
Apr 15
Full
Apr 22
Last Quarter
Apr 29
New
May 6
First Quarter

Hourly Weather History & Observations

Time (MDT) Temp. Windchill Dew Point Humidity Pressure Visibility Wind Dir Wind Speed Gust Speed Precip Events Conditions
12:15 AM 46.4 °F 40.7 °F 21.9 °F 38% 30.25 in 10.0 mi WSW 12.7 mph - N/A   Clear
12:35 AM 45.0 °F 39.3 °F 22.1 °F 40% 30.25 in 10.0 mi WSW 11.5 mph - N/A   Clear
12:55 AM 45.0 °F 39.7 °F 22.1 °F 40% 30.24 in 10.0 mi WSW 10.4 mph - N/A   Clear
1:15 AM 43.2 °F 37.4 °F 22.6 °F 44% 30.24 in 10.0 mi WSW 10.4 mph - N/A   Clear
1:35 AM 47.5 °F - 21.9 °F 36% 30.24 in 10.0 mi WSW 12.7 mph - N/A   Clear
1:55 AM 51.1 °F - 21.9 °F 32% 30.23 in 10.0 mi WSW 16.1 mph - N/A   Clear
2:15 AM 50.5 °F - 21.6 °F 32% 30.22 in 10.0 mi SW 11.5 mph - N/A   Clear
2:35 AM 48.7 °F - 21.7 °F 35% 30.22 in 10.0 mi WSW 10.4 mph - N/A   Clear
2:55 AM 50.2 °F - 21.7 °F 33% 30.21 in 10.0 mi SW 13.8 mph 19.6 mph N/A   Clear
3:15 AM 50.0 °F - 21.6 °F 33% 30.20 in 10.0 mi WSW 10.4 mph - N/A   Clear
3:35 AM 50.2 °F - 21.2 °F 32% 30.20 in 10.0 mi WSW 13.8 mph - N/A   Clear
3:55 AM 46.6 °F - 21.9 °F 38% 30.19 in 10.0 mi WSW 8.1 mph - N/A   Clear
4:15 AM 45.3 °F 40.6 °F 22.6 °F 41% 30.19 in 10.0 mi WSW 9.2 mph - N/A   Clear
4:35 AM 45.1 °F 40.8 °F 22.8 °F 41% 30.18 in 10.0 mi WSW 8.1 mph - N/A   Clear
4:55 AM 44.2 °F 39.7 °F 22.8 °F 43% 30.17 in 10.0 mi West 8.1 mph - N/A   Clear
5:15 AM 44.8 °F 40.4 °F 22.8 °F 42% 30.17 in 10.0 mi West 8.1 mph - N/A   Clear
5:35 AM 44.4 °F 40.0 °F 23.0 °F 43% 30.17 in 10.0 mi WSW 8.1 mph - N/A   Clear
5:55 AM 45.5 °F 40.8 °F 23.0 °F 41% 30.16 in 10.0 mi WSW 9.2 mph 16.1 mph N/A   Clear
6:15 AM 46.6 °F - 23.0 °F 39% 30.16 in 10.0 mi WSW 10.4 mph - N/A   Clear
6:35 AM 47.7 °F - 22.8 °F 38% 30.16 in 10.0 mi WSW 11.5 mph - N/A   Clear
6:55 AM 47.3 °F - 22.5 °F 38% 30.16 in 10.0 mi WSW 10.4 mph - N/A   Clear
7:15 AM 46.0 °F 40.6 °F 23.0 °F 40% 30.16 in 10.0 mi WSW 11.5 mph - N/A   Clear
7:35 AM 45.5 °F 40.3 °F 23.9 °F 43% 30.17 in 10.0 mi WSW 10.4 mph - N/A   Clear
7:55 AM 44.8 °F 39.4 °F 24.6 °F 45% 30.17 in 10.0 mi WSW 10.4 mph - N/A   Clear
8:15 AM 48.2 °F - 24.4 °F 39% 30.16 in 10.0 mi WSW 10.4 mph - N/A   Clear
8:35 AM 52.2 °F - 23.9 °F 33% 30.17 in 10.0 mi West 12.7 mph 19.6 mph N/A   Clear
8:55 AM 50.7 °F - 24.1 °F 35% 30.17 in 10.0 mi West 12.7 mph 17.3 mph N/A   Clear
9:15 AM 53.6 °F - 24.4 °F 32% 30.17 in 10.0 mi West 12.7 mph 21.9 mph N/A   Clear
9:35 AM 57.9 °F - 24.1 °F 27% 30.17 in 10.0 mi West 18.4 mph 24.2 mph N/A   Clear
9:55 AM 59.0 °F - 21.9 °F 24% 30.17 in 10.0 mi West 19.6 mph 27.6 mph N/A   Clear
10:15 AM 59.9 °F - 21.9 °F 23% 30.17 in 10.0 mi WSW 23.0 mph 33.4 mph N/A   Clear
10:35 AM 61.5 °F - 21.7 °F 22% 30.17 in 10.0 mi West 21.9 mph 31.1 mph N/A   Clear
10:55 AM 61.9 °F - 22.3 °F 22% 30.16 in 10.0 mi West 19.6 mph 28.8 mph N/A   Clear
11:15 AM 62.6 °F - 22.8 °F 22% 30.16 in 10.0 mi WSW 21.9 mph 32.2 mph N/A   Clear
11:35 AM 63.7 °F - 23.0 °F 21% 30.16 in 10.0 mi West 25.3 mph 31.1 mph N/A   Clear
11:55 AM 64.4 °F - 22.8 °F 21% 30.15 in 10.0 mi West 23.0 mph 32.2 mph N/A   Clear
12:15 PM 64.9 °F - 20.5 °F 18% 30.15 in 10.0 mi WSW 25.3 mph 31.1 mph N/A   Clear
12:35 PM 66.0 °F - 20.5 °F 18% 30.14 in 10.0 mi West 28.8 mph 35.7 mph N/A   Clear
12:55 PM 65.1 °F - 21.4 °F 19% 30.13 in 10.0 mi West 24.2 mph 35.7 mph N/A   Clear
1:15 PM 65.8 °F - 20.3 °F 18% 30.13 in 10.0 mi West 26.5 mph 38.0 mph N/A   Clear
1:55 PM 66.9 °F - 21.0 °F 17% 30.12 in 10.0 mi West 29.9 mph 36.8 mph N/A   Clear
2:15 PM 66.0 °F - 21.6 °F 18% 30.11 in 10.0 mi West 27.6 mph 39.1 mph N/A   Clear
2:35 PM 65.7 °F - 21.9 °F 19% 30.10 in 10.0 mi West 27.6 mph 40.3 mph N/A   Clear
2:55 PM 66.0 °F - 22.3 °F 19% 30.10 in 10.0 mi West 24.2 mph 39.1 mph N/A   Clear
3:15 PM 66.0 °F - 22.3 °F 19% 30.10 in 10.0 mi West 27.6 mph 38.0 mph N/A   Clear
3:35 PM 64.8 °F - 22.1 °F 20% 30.09 in 10.0 mi West 28.8 mph 38.0 mph N/A   Clear
3:55 PM 64.0 °F - 21.2 °F 19% 30.09 in 10.0 mi West 26.5 mph 40.3 mph N/A   Clear
4:15 PM 64.2 °F - 21.2 °F 19% 30.08 in 10.0 mi West 29.9 mph 40.3 mph N/A   Clear
4:35 PM 63.3 °F - 20.8 °F 20% 30.08 in 10.0 mi West 31.1 mph 40.3 mph N/A   Clear
4:55 PM 62.8 °F - 21.0 °F 20% 30.08 in 10.0 mi West 28.8 mph 38.0 mph N/A   Clear
5:15 PM 62.6 °F - 21.7 °F 21% 30.08 in 10.0 mi West 27.6 mph 36.8 mph N/A   Clear
5:35 PM 61.3 °F - 21.9 °F 22% 30.07 in 10.0 mi West 27.6 mph 38.0 mph N/A   Clear
5:55 PM 61.2 °F - 22.3 °F 22% 30.07 in 10.0 mi West 29.9 mph 36.8 mph N/A   Clear
6:15 PM 58.5 °F - 22.5 °F 25% 30.07 in 10.0 mi West 28.8 mph 39.1 mph N/A   Clear
6:55 PM 57.2 °F - 22.8 °F 27% 30.06 in 10.0 mi West 25.3 mph 33.4 mph N/A   Clear
7:15 PM 56.3 °F - 22.1 °F 27% 30.07 in 10.0 mi West 26.5 mph 34.5 mph N/A   Clear
7:35 PM 56.3 °F - 21.9 °F 26% 30.06 in 10.0 mi West 21.9 mph 31.1 mph N/A   Clear
7:55 PM 54.5 °F - 21.9 °F 28% 30.07 in 10.0 mi West 20.7 mph 27.6 mph N/A   Clear
8:15 PM 52.7 °F - 21.7 °F 30% 30.06 in 10.0 mi West 19.6 mph 26.5 mph N/A   Clear
8:35 PM 52.2 °F - 21.2 °F 30% 30.06 in 10.0 mi West 21.9 mph 27.6 mph N/A   Clear
8:55 PM 51.1 °F - 21.2 °F 31% 30.06 in 10.0 mi West 17.3 mph 25.3 mph N/A   Clear
9:15 PM 48.4 °F - 21.7 °F 35% 30.07 in 10.0 mi WSW 16.1 mph 21.9 mph N/A   Clear
9:35 PM 47.8 °F - 22.5 °F 37% 30.07 in 10.0 mi West 16.1 mph - N/A   Clear
9:55 PM 47.3 °F - 23.0 °F 38% 30.08 in 10.0 mi West 15.0 mph - N/A   Clear
10:15 PM 47.5 °F - 23.0 °F 38% 30.08 in 10.0 mi WSW 15.0 mph - N/A   Clear
10:35 PM 46.6 °F - 23.0 °F 39% 30.07 in 10.0 mi West 10.4 mph - N/A   Clear
10:55 PM 46.4 °F 40.7 °F 22.8 °F 39% 30.06 in 10.0 mi West 12.7 mph 18.4 mph N/A   Clear
11:35 PM 45.7 °F 39.5 °F 23.2 °F 41% 30.07 in 10.0 mi WSW 13.8 mph - N/A   Clear
11:55 PM 45.5 °F 39.9 °F 23.5 °F 42% 30.08 in 10.0 mi WSW 11.5 mph - N/A   Clear